Salisbury, MD

7:27 AM EDT on May 29, 2017 (GMT -0400)
Salisbury-Ocean City Wicomico Regional

Weather History for KSBY - June, 2013

Change the Weather History Date:

Wednesday, June 26, 2013

  Actual Average Record
Temperature  
Mean Temperature 83 °F 75 °F  
Max Temperature 92 °F 85 °F 100 °F (1952)
Min Temperature 74 °F 65 °F 49 °F (1979)
Degree Days  
Heating Degree Days 0 0  
Month to date heating degree days 0 18  
Since 1 June heating degree days 0 18  
Since 1 July heating degree days 3862 4440  
Cooling Degree Days 18 10  
Month to date cooling degree days 269 185  
Year to date cooling degree days 460 269  
Since 1 June cooling degree days 269 185  
Growing Degree Days 32 (Base 50)    
Moisture  
Dew Point 72 °F    
Average Humidity 70    
Maximum Humidity 87    
Minimum Humidity 52    
Precipitation  
Precipitation 0.00 in 0.12 in 2.23 in (1958)
Month to date precipitation 6.85 3.24  
Year to date precipitation 25.50 21.79  
Snow  
Snow 0.00 in 0.00 in 0.00 in (2002)
Month to date snowfall 0.0 0.0  
Since 1 July snowfall 2.8 9.3  
Snow Depth 0.00 in    
Sea Level Pressure  
Sea Level Pressure 29.88 in    
Wind  
Wind Speed 6 mph (SW)    
Max Wind Speed 16 mph    
Max Gust Speed 23 mph    
Visibility 10 miles    
Events      
T = Trace of Precipitation, MM = Missing Value Source: NWS Daily Summary

Daily Weather History Graph

Daily Weather History Graph

Search for Another Location

Airport or City:

Trip Planner

Search our weather history database for the weather conditions in past years. The results will help you decide how hot, cold, wet, or windy it might be!

Date:

Astronomy

Jun. 26, 2013 Rise Set
Actual Time 5:40 AM EDT 8:29 PM EDT
Civil Twilight 5:08 AM EDT 9:01 PM EDT
Nautical Twilight 4:28 AM EDT 9:41 PM EDT
Astronomical Twilight 3:43 AM EDT 10:26 PM EDT
Moon 10:55 PM EDT (6/26) 9:25 AM EDT (6/26)
Length of Visible Light 15h 52m
Length of Day
14h 49m
Waning Gibbous, 85% of the Moon is Illuminated
Jun 26
Waning Gibbous
Jun 30
Last Quarter
Jul 8
New
Jul 15
First Quarter
Jul 22
Full

Hourly Weather History & Observations

Time (EDT) Temp. Heat Index Dew Point Humidity Pressure Visibility Wind Dir Wind Speed Gust Speed Precip Events Conditions
12:54 AM 80.1 °F 84.2 °F 73.0 °F 79% 29.94 in 10.0 mi West 6.9 mph - N/A   Partly Cloudy
1:54 AM 78.1 °F - 66.9 °F 68% 29.91 in 10.0 mi SSW 6.9 mph - N/A   Clear
2:54 AM 75.9 °F - 66.0 °F 71% 29.90 in 10.0 mi SW 3.5 mph - N/A   Clear
3:54 AM 73.9 °F - 68.0 °F 82% 29.91 in 10.0 mi SSW 4.6 mph - N/A   Clear
4:54 AM 73.9 °F - 68.0 °F 82% 29.90 in 10.0 mi Calm Calm - N/A   Clear
5:54 AM 75.9 °F - 72.0 °F 87% 29.91 in 5.0 mi SSW 5.8 mph - N/A   Clear
6:54 AM 79.0 °F - 73.9 °F 84% 29.92 in 7.0 mi SSW 4.6 mph - N/A   Clear
7:54 AM 81.0 °F 86.2 °F 73.9 °F 79% 29.92 in 10.0 mi SW 8.1 mph - N/A   Clear
8:54 AM 82.9 °F 88.8 °F 73.0 °F 72% 29.93 in 10.0 mi West 6.9 mph - N/A   Scattered Clouds
9:01 AM 82.4 °F 88.2 °F 73.4 °F 74% 29.92 in 10.0 mi WSW 8.1 mph - N/A   Mostly Cloudy
9:54 AM 82.9 °F 88.8 °F 73.0 °F 72% 29.93 in 10.0 mi WSW 9.2 mph - N/A   Overcast
10:54 AM 84.9 °F 90.7 °F 72.0 °F 65% 29.91 in 10.0 mi SW 5.8 mph - N/A   Mostly Cloudy
11:06 AM 86.0 °F 91.8 °F 71.6 °F 62% 29.90 in 10.0 mi SSW 10.4 mph - N/A   Scattered Clouds
11:38 AM 87.8 °F 95.6 °F 73.4 °F 62% 29.90 in 10.0 mi SW 6.9 mph - N/A   Mostly Cloudy
11:54 AM 87.1 °F 94.5 °F 73.0 °F 63% 29.91 in 10.0 mi SSW 4.6 mph - N/A   Scattered Clouds
12:54 PM 89.1 °F 95.0 °F 71.1 °F 55% 29.90 in 10.0 mi SW 10.4 mph - N/A   Clear
1:54 PM 91.0 °F 97.6 °F 71.1 °F 52% 29.88 in 10.0 mi WSW 9.2 mph - N/A   Clear
2:54 PM 91.9 °F 100.7 °F 73.0 °F 54% 29.87 in 10.0 mi SW 8.1 mph - N/A   Clear
3:54 PM 91.0 °F 98.2 °F 72.0 °F 53% 29.86 in 10.0 mi SW 10.4 mph - N/A   Clear
4:54 PM 91.0 °F 98.2 °F 72.0 °F 53% 29.84 in 10.0 mi WSW 10.4 mph - N/A   Clear
5:54 PM 90.0 °F 96.9 °F 72.0 °F 55% 29.82 in 10.0 mi SW 6.9 mph - N/A   Clear
6:54 PM 88.0 °F 95.6 °F 73.0 °F 61% 29.83 in 10.0 mi SSW 6.9 mph - N/A   Clear
7:54 PM 86.0 °F 93.8 °F 73.9 °F 67% 29.84 in 10.0 mi South 4.6 mph - N/A   Clear
8:54 PM 82.9 °F 89.4 °F 73.9 °F 74% 29.83 in 10.0 mi SSE 3.5 mph - N/A   Clear
9:54 PM 82.0 °F 87.9 °F 73.9 °F 76% 29.84 in 10.0 mi SSW 4.6 mph - N/A   Clear
10:54 PM 81.0 °F 84.1 °F 69.1 °F 67% 29.84 in 10.0 mi SSW 5.8 mph - N/A   Scattered Clouds
11:54 PM 80.1 °F 83.2 °F 70.0 °F 71% 29.83 in 9.0 mi WNW 4.6 mph - N/A   Clear